Flag for Turkmenistan Weather past 2 weeks in Ashgabat, Turkmenistan

Now
39 °F

Light rain. Overcast.


Feels Like: 37 °F
Forecast: 37 / 50 °F
Wind: 3 mph from Northwest

Location: Ashgabat

Current Time: Feb 27, 2015 at 3:58:54 AM

Latest Report: Feb 27, 2015 at 3:00 AM


Visibility: N/A

Pressure: 30.45 "Hg

Humidity: 70%

Dew point: 30 °F

Location of AshgabatLocation

Historic Weather in Ashgabat — Graph

°F

Ashgabat temperature yesterday

Maximum temperature yesterday: 45 °F (at 3:00 PM)
Minimum temperature yesterday: 34 °F (at 6:00 AM)
Average temperature yesterday: 40 °F

Past Weeks' High & Low Weather Summary

 TemperatureHumidityPressure
High57 °F (Feb 13, 3:00 PM)100% (Feb 12, 3:00 AM)30.45 "Hg (Feb 12, 3:00 AM)
Low30 °F (Feb 22, 11:30 PM)44% (Feb 25, 2:00 PM)29.77 "Hg (Feb 21, 5:00 AM)
Average44 °F90%30.08 "Hg
* Reported Feb 12 3:00 AM — Feb 27 3:00 AM, Ashgabat, Weather by CustomWeather, © 2015

Note: Actual official high and low records may vary slightly from our data, if they occured in-between our weather recording intervals... More about our weather records

Advertising

Ashgabat weather history for previous 24 hours

 ConditionsComfort  
Time TempWeatherWind HumidityBarometerVisibility
3:00 AM
Fri, Feb 27
39 °FLight rain. Overcast.3 mph70%30.45 "HgN/A
2:00 AM39 °FOvercast.3 mph75%30.45 "HgN/A
1:00 AM39 °FOvercast.3 mph70%30.45 "HgN/A
12:00 AM41 °FOvercast.6 mph70%30.42 "HgN/A
11:00 PM
Thu, Feb 26
41 °FOvercast.8 mph70%30.42 "HgN/A
10:00 PM43 °FMostly cloudy.8 mph76%30.42 "HgN/A
9:00 PM43 °FMostly cloudy.6 mph76%30.39 "HgN/A
8:00 PM45 °FMostly cloudy.6 mph71%30.39 "HgN/A
7:00 PM45 °FMostly cloudy.6 mph71%30.36 "HgN/A
6:00 PM45 °FBroken clouds.6 mph71%30.33 "HgN/A
5:00 PM45 °FOvercast.8 mph71%30.33 "HgN/A
4:00 PM45 °FOvercast.8 mph71%30.33 "HgN/A
3:00 PM45 °FMostly cloudy.6 mph71%30.33 "HgN/A
2:00 PM43 °FMostly cloudy.6 mph76%30.33 "HgN/A
1:00 PM41 °FMostly cloudy.6 mph81%30.33 "HgN/A
12:30 PM39 °FMostly cloudy.3 mph81%30.33 "HgN/A
12:00 PM39 °FMostly cloudy.6 mph81%30.33 "HgN/A
11:30 AM39 °FLow clouds.3 mph81%30.33 "Hg6 mi
11:00 AM37 °FLow clouds.No wind87%30.30 "Hg6 mi
10:00 AM36 °FLow clouds.1 mph93%30.30 "Hg4 mi
8:00 AM34 °FPassing clouds.No wind93%30.24 "Hg5 mi
7:00 AM34 °FClear.1 mph93%30.21 "Hg4 mi
6:00 AM34 °FPassing clouds.3 mph93%30.21 "HgN/A
5:00 AM36 °FPassing clouds.No wind87%30.21 "HgN/A
4:00 AM36 °FClear.3 mph87%30.21 "HgN/A
3:00 AM37 °FClear.6 mph81%30.21 "HgN/A
Weather by CustomWeather, © 2015

See weather overviewHow to use our weather pages